Regional Weather Roundup
Issued by NWS Charleston, SC

Home | Current Version | Previous Version | Text Only | Print | Product List | Glossary On
Versions: 1 2 3 4 5 6 7 8 9 10 11 12 13 14 15 16 17 18 19 20 21 22 23 24 25 26 27 28 29 30 31 32 33 34 35 36 37 38 39 40 41 42 43 44 45 46 47 48 49 50
000
ASUS42 KCHS 242227
RWRCHS

REGIONAL WEATHER ROUNDUP
NATIONAL WEATHER SERVICE CHARLESTON SC
600 PM EDT SAT JUN 24 2017

NOTE: "FAIR" INDICATES FEW OR NO CLOUDS BELOW 12,000 FEET WITH NO
SIGNIFICANT WEATHER AND/OR OBSTRUCTIONS TO VISIBILITY.

NOT ALL STATIONS ARE QUALITY CONTROLLED. USE DATA WITH CAUTION...
ESPECIALLY DEWPOINT OBSERVATIONS.

SCZ027-030-031-034>040-042>050-242300-
...SOUTHEAST SOUTH CAROLINA...

CITY           SKY/WX    TMP DP  RH WIND       PRES   REMARKS
N CHARLESTON   MOSUNNY   89  73  59 S15       29.98S HX  97
WATERFRONT PRK   N/A     86  77  74 S15       29.96S HX  97
JOHNS ISLAND   CLOUDY    88  77  70 S15       29.99S HX 100
PINOPOLIS        N/A     91  73  55 SW7G14    29.88F HX 100
MONCKS CORNER  FAIR      88  68  51 SW9G18    29.97R HX  91
SUMMERVILLE    MOCLDY    88  70  55 SW5       29.98R HX  92
BEAUFORT MCAS  MOSUNNY   91  79  67 S6        29.98S HX 107
BEAUFORT ARPT  FAIR      88  77  70 S10       29.98S HAZE    HX 100
HILTON HEAD IS MOSUNNY   88  77  70 S13       30.00S HX 100
WALTERBORO     CLOUDY    88  70  55 NW9       29.99R HX  92
ALLENDALE      FAIR      79  75  89 VRB5      30.00R

...SOUTHERN MIDLANDS AND PEE DEE...

CITY           SKY/WX    TMP DP  RH WIND       PRES   REMARKS
GEORGETOWN     FAIR      86  77  74 S14G22    29.97S HX  97
KINGSTREE      FAIR      79  73  83 W5        29.96R THUNDER
ORANGEBURG     CLOUDY    77  75  93 SW9       29.99R
BARNWELL       LGT RAIN  75  75 100 SW5       30.01R
AIKEN          LGT RAIN  73  73 100 SW6       30.03S
MANNING        TSTM      75  75 100 NW10      29.98R
COLUMBIA       LGT RAIN  77  74  90 SW7       29.96F
SUMTER         LGT RAIN  78  73  83 SW10      29.95R
FLORENCE       CLOUDY    82  75  79 W10       29.94R
MYRTLE BEACH   MOSUNNY   86  81  84 S14G25    29.94F HX 102
N MYRTLE BEACH SUNNY     84  78  82 SW20G31   29.93F HX  95

$$

GAZ063-065-086>088-099>101-113>116-118-119-134>141-150-242300-
...SOUTHEAST GEORGIA...

CITY           SKY/WX    TMP DP  RH WIND       PRES   REMARKS
SAVANNAH ARPT  MOSUNNY   94  67  41 W10       29.99S HX  97
HUNTER AAF     MOSUNNY   94  71  46 W9        29.96F HX 100
FORT STEWART   MOSUNNY   93  69  44 SW10      29.97S HX  98
STATESBORO     CLOUDY    83  73  69 NW10G20   30.03R
SYLVANIA       CLOUDY    79  76  90 NW8       30.03F
CLAXTON        FAIR      90  70  51 SW6       30.00F HX  95

...CSRA...CENTRAL AND FAR SOUTHEAST GEORGIA...

CITY           SKY/WX    TMP DP  RH WIND       PRES   REMARKS
THOMSON        CLOUDY    77  75  92 W5        30.05F
AUGUSTA-BUSH   CLOUDY    78  75  90 SW9       29.99S
AUGUSTA-DANIEL CLOUDY    77  72  84 SW5       30.01R
SWAINSBORO     RAIN      73  73 100 CALM      30.03F
VIDALIA        MOSUNNY   84  73  70 N9        30.02S HX  91
EASTMAN        CLOUDY    82  67  61 CALM      30.04S
HAZLEHURST       N/A     92  69  47 SW7       29.99F HX  97
ALMA           MOSUNNY   93  70  46 W6        30.00F HX  99
WAYCROSS       MOSUNNY   95  74  49 W10       30.00F HX 105
JESUP          FAIR      93  64  38 W5        30.00S HX  95
BAXLEY         FAIR      93  73  52 W6        29.99F HX 102
BRUNSWICK      SUNNY     93  79  62 S7        30.00F HX 110
SAINT SIMONS   SUNNY     87  77  72 S7        30.00F HX  99

$$

SCZ027-028-034-036>038-045-046-048>050-GAZ119-141-242300-
...LAKE AND SUPPLEMENTAL COASTAL OBSERVATIONS...

STATION/POSITION TIME  TEMP    WIND        PRES    WAVE   SWELL
                       AIR SEA DIR/SP/G            HT/PER HT/PER/DIR
                 (UTC) (F)     (DEG/KT/KT) (MB)    (FT/S) (FT/S/D)
WINYAH BAY       2145   87     200/ 15     1014.0S
LAKE MURRAY      2220   78     250/  7/  9 1014.2S
ACE BASIN NERRS  2130   88     170/  2     1015.0S
FORT PULASKI     2200   87 84  210/  9/ 14 1015.8
SAPELO ISLAND    2200   89     160/ 10     1016.0

$$

ANZ835-935-AMZ111-154-330-350-352-354-370-450-454-472-242300-
...C-MAN AND BUOY OBSERVATIONS...

STATION/POSITION TIME  TEMP    WIND        PRES    WAVE   SWELL
                       AIR SEA DIR/SP/G            HT/PER HT/PER/DIR
                 (UTC) (F)     (DEG/KT/KT) (MB)    (FT/S) (FT/S/D)
BUOY 41004       2210   81 81  200/ 17/ 21 1015.5
BUOY 41008       2150   82 83  160/ 14/ 16 1015.8S   3/ 8   2/110/ 8
FOLLY BEACH CMAN 2200   83     200/ 15/ 19 1016.2F
CAPERS NEARSHORE 2208   87 83  220/ 17/ 23 1014.9F
FRIPP NEARSHORE  2208   84 84  200/ 16/ 19 1015.1F


STATION/POSITION TIME  TEMP    WIND        PRES    WAVE   SWELL
                       AIR SEA DIR/SP/G            HT/PER HT/PER/DIR
                 (UTC) (F)     (DEG/KT/KT) (MB)    (FT/S) (FT/S/D)
5E ST. MARYS GA  2200      81                N/A     3/ 9
FRYING PAN BUOY  2210   81 81  210/ 21/ 27 1014.9
BUOY 41025       2150   81 80  230/ 19/ 25 1013.3F   7/ 7
CAPE LOOKOUT NC  2200   81     220/ 16/ 21 1013.4F
BUOY 41002       2150   81 81  200/ 14/ 17 1018.5F   4/ 6   2/100/ 8
BUOY 41010       2210   83 84  170/ 10/ 14 1018.5
ST AUGUSTINE FL  2200   80 81  170/ 13/ 14 1016.8F


$$




USA.gov is the U.S. government's official web portal to all federal, state and local government web resources and services.